Location: Groß Eilstorf
(52.8200°N, 9.4552°E)
Time: 15:37:34
(UTC+00:00)

Cosmos 1536 - Pass Details

Date: 15 May 2026
Orbit: 482 x 500 km, 82.5° (Epoch: 10 June)

Event Time Altitude Azimuth Distance (km) Brightness Sun altitude
Rises 21:29:53 0° 351° (N) 2,571 7.7 -14.4°
Reaches altitude 10° 21:32:01 10° 356° (N) 1,688 6.4 -14.5°
Maximum altitude 21:35:40 59° 77° (ENE) 571 2.8 -14.8°
Enters shadow 21:37:20 29° 146° (SE) 924 3.4 -14.9°
